User: anonymous   Login
Location: Arbon
(43.0005°N, 0.7472°E)
Time: 10:32:14
(UTC+00:00)
Language:

Cosmos 1703 - Orbit

View from above orbital plane
View from above orbital plane
View from above satellite
View from above satellite

Ground track
Ground track

The orbit data is extracted from the following two-line orbital elements,

1 16262U 85108A   20299.92974669 +.00001407 +00000-0 +81521-4 0  9996
2 16262 082.4757 124.0472 0012035 024.6225 335.5577 15.11384074903870
Epoch (UTC): 25 October 2020 22:18:50
Eccentricity: 0.0012035
inclination: 82.4757°
perigee height: 523 km
apogee height: 540 km
right ascension of ascending node: 124.0472°
argument of perigee: 24.6225°
revolutions per day: 15.11384074
mean anomaly at epoch: 335.5577°
orbit number at epoch: 90387

The dashed part of the orbit path shows where the satellite is in the earth's shadow,  

DLR